TimeCST,TemperatureF,Dew PointF,Humidity,Sea Level PressureIn,VisibilityMPH,Wind Direction,Wind SpeedMPH,Gust SpeedMPH,PrecipitationIn,Events,Conditions,WindDirDegrees,DateUTC
12:15 AM,19.4,16.7,89,30.10,10.0,ESE,5.8,-,N/A,,Overcast,120,2013-11-28 06:15:00
12:35 AM,19.4,16.5,89,30.10,10.0,ESE,5.8,-,N/A,,Overcast,120,2013-11-28 06:35:00
12:55 AM,19.4,16.5,89,30.09,10.0,ESE,5.8,-,N/A,,Overcast,120,2013-11-28 06:55:00
1:15 AM,19.4,16.3,88,30.09,10.0,ESE,4.6,-,N/A,,Overcast,120,2013-11-28 07:15:00
1:35 AM,19.4,16.2,87,30.08,10.0,ESE,5.8,-,N/A,,Overcast,110,2013-11-28 07:35:00
1:55 AM,19.4,16.2,87,30.08,10.0,ESE,5.8,-,N/A,,Overcast,120,2013-11-28 07:55:00
2:15 AM,19.4,16.2,87,30.08,10.0,ESE,4.6,-,N/A,,Overcast,120,2013-11-28 08:15:00
2:35 AM,19.4,16.2,87,30.09,10.0,ESE,4.6,-,N/A,,Overcast,120,2013-11-28 08:35:00
2:55 AM,19.4,16.2,87,30.09,10.0,ESE,4.6,-,N/A,,Overcast,120,2013-11-28 08:55:00
3:15 AM,19.4,16.2,87,30.09,10.0,SE,3.5,-,N/A,,Overcast,130,2013-11-28 09:15:00
3:35 AM,19.4,15.8,86,30.09,10.0,SE,3.5,-,N/A,,Overcast,130,2013-11-28 09:35:00
3:55 AM,19.4,16.0,87,30.09,10.0,SE,3.5,-,N/A,,Overcast,140,2013-11-28 09:55:00
4:15 AM,19.4,15.8,86,30.10,10.0,Calm,Calm,-,N/A,,Overcast,0,2013-11-28 10:15:00
4:35 AM,19.2,16.0,87,30.10,10.0,Calm,Calm,-,N/A,,Overcast,0,2013-11-28 10:35:00
4:55 AM,19.2,15.8,87,30.10,10.0,Calm,Calm,-,N/A,Snow,Light Snow,0,2013-11-28 10:55:00
5:15 AM,19.0,15.8,87,30.11,10.0,Calm,Calm,-,N/A,Snow,Light Snow,0,2013-11-28 11:15:00
5:35 AM,18.5,16.2,91,30.11,10.0,Calm,Calm,-,N/A,Snow,Light Snow,0,2013-11-28 11:35:00
5:55 AM,19.0,16.2,89,30.12,10.0,Calm,Calm,-,N/A,,Overcast,0,2013-11-28 11:55:00
6:15 AM,19.0,16.3,89,30.12,10.0,Calm,Calm,-,N/A,Snow,Light Snow,0,2013-11-28 12:15:00
6:35 AM,18.7,16.3,91,30.13,10.0,Calm,Calm,-,N/A,Snow,Light Snow,0,2013-11-28 12:35:00
6:55 AM,19.0,16.3,89,30.14,10.0,Calm,Calm,-,N/A,Snow,Light Snow,0,2013-11-28 12:55:00
7:15 AM,18.7,16.7,92,30.14,10.0,Calm,Calm,-,N/A,Snow,Light Snow,0,2013-11-28 13:15:00
7:35 AM,18.5,16.3,91,30.14,10.0,Calm,Calm,-,N/A,,Overcast,0,2013-11-28 13:35:00
7:55 AM,17.8,15.6,91,30.15,10.0,Calm,Calm,-,0.01,,Overcast,0,2013-11-28 13:55:00
8:15 AM,17.4,15.6,93,30.15,10.0,Calm,Calm,-,N/A,,Overcast,0,2013-11-28 14:15:00
8:35 AM,18.1,16.2,92,30.16,10.0,Calm,Calm,-,N/A,,Overcast,0,2013-11-28 14:35:00
8:55 AM,19.0,16.7,91,30.17,10.0,Calm,Calm,-,N/A,,Overcast,0,2013-11-28 14:55:00
9:15 AM,19.6,17.1,90,30.17,10.0,West,3.5,-,N/A,,Overcast,270,2013-11-28 15:15:00
9:35 AM,20.3,17.2,88,30.18,10.0,West,4.6,-,N/A,,Overcast,280,2013-11-28 15:35:00
9:55 AM,21.2,16.7,83,30.19,10.0,WNW,6.9,-,N/A,,Overcast,290,2013-11-28 15:55:00
10:15 AM,21.9,16.7,80,30.20,10.0,WNW,6.9,-,N/A,,Overcast,300,2013-11-28 16:15:00
10:35 AM,22.5,16.7,79,30.20,10.0,NW,6.9,-,N/A,,Overcast,310,2013-11-28 16:35:00
10:55 AM,22.8,16.2,76,30.20,10.0,NW,8.1,-,N/A,,Overcast,320,2013-11-28 16:55:00
11:15 AM,22.8,15.8,74,30.20,10.0,NW,8.1,-,N/A,,Overcast,320,2013-11-28 17:15:00
11:35 AM,23.0,15.4,73,30.21,10.0,NW,5.8,-,N/A,,Scattered Clouds,320,2013-11-28 17:35:00
11:55 AM,24.1,15.8,71,30.21,10.0,NNW,9.2,-,N/A,,Scattered Clouds,340,2013-11-28 17:55:00
12:15 PM,24.3,16.2,71,30.22,10.0,NW,9.2,-,N/A,,Scattered Clouds,320,2013-11-28 18:15:00
12:35 PM,23.9,16.0,72,30.23,10.0,NW,8.1,-,N/A,,Mostly Cloudy,320,2013-11-28 18:35:00
12:55 PM,23.9,16.0,72,30.23,10.0,NW,6.9,-,N/A,,Overcast,310,2013-11-28 18:55:00
1:15 PM,23.9,16.2,72,30.24,10.0,NNW,9.2,-,N/A,Snow,Light Snow,330,2013-11-28 19:15:00
1:35 PM,24.4,16.9,73,30.25,10.0,NNW,8.1,-,N/A,,Overcast,330,2013-11-28 19:35:00
1:55 PM,23.7,15.8,72,30.26,10.0,NW,9.2,-,N/A,Snow,Light Snow,320,2013-11-28 19:55:00
2:15 PM,23.2,15.4,72,30.27,10.0,NW,10.4,-,N/A,Snow,Light Snow,310,2013-11-28 20:15:00
2:35 PM,23.0,15.6,73,30.27,10.0,West,9.2,-,N/A,Snow,Light Snow,280,2013-11-28 20:35:00
2:55 PM,22.8,15.3,73,30.29,10.0,West,8.1,-,N/A,Snow,Light Snow,280,2013-11-28 20:55:00
3:15 PM,22.8,15.8,74,30.30,3.0,WNW,6.9,-,N/A,Snow,Light Snow,300,2013-11-28 21:15:00
3:35 PM,22.6,16.7,78,30.31,10.0,WNW,9.2,-,N/A,Snow,Light Snow,300,2013-11-28 21:35:00
3:55 PM,22.1,17.1,81,30.32,5.0,WNW,6.9,-,N/A,Snow,Light Snow,300,2013-11-28 21:55:00
4:15 PM,21.6,16.0,79,30.33,10.0,WNW,6.9,-,N/A,Snow,Light Snow,300,2013-11-28 22:15:00
4:35 PM,20.8,16.2,82,30.34,7.0,West,6.9,-,N/A,Snow,Light Snow,280,2013-11-28 22:35:00
4:55 PM,18.5,14.5,85,30.35,7.0,WNW,6.9,-,N/A,Snow,Light Snow,300,2013-11-28 22:55:00
5:15 PM,19.0,14.9,84,30.36,10.0,WNW,4.6,-,N/A,Snow,Light Snow,300,2013-11-28 23:15:00
5:35 PM,17.4,13.5,84,30.37,10.0,WNW,3.5,-,N/A,,Scattered Clouds,300,2013-11-28 23:35:00
5:55 PM,14.2,11.7,90,30.38,10.0,West,3.5,-,N/A,,Clear,270,2013-11-28 23:55:00
6:15 PM,12.2,10.6,93,30.39,10.0,West,3.5,-,N/A,,Clear,280,2013-11-29 00:15:00
6:35 PM,12.0,10.0,92,30.40,10.0,Calm,Calm,-,N/A,,Clear,0,2013-11-29 00:35:00
6:55 PM,12.2,10.4,92,30.41,10.0,Calm,Calm,-,N/A,,Clear,0,2013-11-29 00:55:00
7:15 PM,9.5,7.3,91,30.41,5.0,West,3.5,-,N/A,,Clear,270,2013-11-29 01:15:00
7:35 PM,9.7,7.7,92,30.42,10.0,West,3.5,-,N/A,,Clear,280,2013-11-29 01:35:00
7:55 PM,12.2,10.2,92,30.43,10.0,West,3.5,-,N/A,,Clear,280,2013-11-29 01:55:00
8:15 PM,11.1,9.0,91,30.43,5.0,West,3.5,-,N/A,,Clear,280,2013-11-29 02:15:00
8:35 PM,7.7,5.0,89,30.43,10.0,West,3.5,-,N/A,,Clear,270,2013-11-29 02:35:00
8:55 PM,10.0,7.7,90,30.43,10.0,Calm,Calm,-,N/A,,Clear,0,2013-11-29 02:55:00
9:15 PM,10.0,7.9,91,30.44,10.0,Calm,Calm,-,N/A,,Clear,0,2013-11-29 03:15:00
9:35 PM,9.3,6.6,89,30.44,10.0,Calm,Calm,-,N/A,,Clear,0,2013-11-29 03:35:00
9:55 PM,7.7,4.6,87,30.45,1.5,Calm,Calm,-,N/A,,Mist,0,2013-11-29 03:55:00
10:15 PM,6.1,2.8,87,30.44,10.0,Calm,Calm,-,N/A,,Clear,0,2013-11-29 04:15:00
10:35 PM,5.0,2.1,88,30.45,10.0,Calm,Calm,-,N/A,,Clear,0,2013-11-29 04:35:00
10:55 PM,4.1,1.0,87,30.47,10.0,Calm,Calm,-,N/A,,Clear,0,2013-11-29 04:55:00
11:15 PM,4.1,1.0,87,30.47,10.0,Calm,Calm,-,N/A,,Clear,0,2013-11-29 05:15:00
11:35 PM,1.6,-2.0,85,30.47,10.0,Calm,Calm,-,N/A,,Clear,0,2013-11-29 05:35:00
11:55 PM,2.3,-0.8,87,30.47,10.0,Calm,Calm,-,N/A,,Clear,0,2013-11-29 05:55:00